Regional Weather Roundup
Issued by NWS

Home | Current Version | Previous Version | Graphics & Text | Print | Product List | Glossary On
Versions: 1 2 3 4 5 6 7 8 9 10 11 12 13 14 15 16 17 18 19 20 21 22 23 24 25 26 27 28 29 30 31 32 33 34 35 36 37 38 39 40 41 42 43 44 45 46 47 48 49 50
000
ASUS45 KBOU 021410
RWRCO

WEATHER ROUNDUP FOR COLORADO
NATIONAL WEATHER SERVICE DENVER/BOULDER CO
800 AM MDT THU JUL 02 2015

NOTE: "FAIR" INDICATES FEW OR NO CLOUDS BELOW 12000 FEET WITH NO
SIGNIFICANT WEATHER AND/OR OBSTRUCTIONS TO VISIBILITY.

COZ001>005-013-030-031-021500-
...NORTHWEST COLORADO...

CITY           SKY/WX    TMP DP  RH WIND       PRES   REMARKS
CRAIG          MOSUNNY   62  51  67 N5        30.24R
HAYDEN         MOSUNNY   63  46  55 SE6       30.25R
MEEKER         PTSUNNY   63  50  62 E5        30.23R
MOUNT WERNER   NOT AVBL
STEAMBOAT SPGS MOSUNNY   56  49  76 CALM      30.28R
WALDEN         MOSUNNY   55  50  82 CALM      30.38R
$$

COZ006>008-011-021500-
...WEST CENTRAL VALLEYS...

CITY           SKY/WX    TMP DP  RH WIND       PRES   REMARKS
GRAND JUNCTION CLOUDY    75  54  47 CALM      30.09R
MONTROSE       PTSUNNY   74  52  46 E9        30.20R
EAGLE          MOSUNNY   61  52  72 CALM      30.29R
RIFLE          PTSUNNY   69  51  52 CALM      30.17R
DELTA          PTSUNNY   76  51  41 E5        30.16R
NUCLA          PTSUNNY   70  54  56 SE5       30.26S
$$

COZ017>023-064>068-021500-
...SOUTHWEST COLORADO...

CITY           SKY/WX    TMP DP  RH WIND       PRES   REMARKS
DURANGO        CLOUDY    64  55  72 CALM      30.26S
CORTEZ         PTSUNNY   68  55  63 NW5       30.23R
PAGOSA SPRINGS CLOUDY    60  53  75 CALM      30.35F
TELLURIDE      CLOUDY    59  54  82 SE5       30.47S
WOLF CREEK PAS NOT AVBL
$$

COZ009-010-012-014-032>034-037-058>063-021500-
...CENTRAL COLORADO...

CITY           SKY/WX    TMP DP  RH WIND       PRES   REMARKS
ASPEN          PTSUNNY   63  48  58 CALM      30.32R
BUENA VISTA    PTSUNNY   58  51  77 CALM      30.35F
COPPER MTN     PTSUNNY   55  43  62 W9        30.64S
BERTHOUD PASS  HAZE      39  32  75 SE7       30.68S VSB 1/2
COTTONWOOD PAS NOT AVBL
GUNNISON       CLOUDY    57  46  67 NW6       30.40R
KREMMLING      MOSUNNY   59  46  63 S3        30.35S
LEADVILLE      PTSUNNY   54  48  80 N3        30.47S
MONARCH PASS   PTSUNNY   50  41  71 W14       30.74S
SALIDA         PTSUNNY   60  52  74 NW6       30.39S
SUNLIGHT       PTSUNNY   59  43  55 W3        30.58R
WILKERSON PASS PTSUNNY   50  45  81 NE7       30.61R
$$

COZ069>075-021500-
...SAN LUIS VALLEY/SANGRE DE CRISTO MOUNTAINS...

CITY           SKY/WX    TMP DP  RH WIND       PRES   REMARKS
ALAMOSA        PTSUNNY   59  55  87 SW3       30.34S
LA VETA PASS   PTSUNNY   50  45  81 MISG      30.49R
SAGUACHE       PTSUNNY   57  52  82 NW9       30.37S
$$

COZ035-036-038>040-021500-
...NORTHERN COLORADO FRONT RANGE...

CITY           SKY/WX    TMP DP  RH WIND       PRES   REMARKS
DENVER INTL AP CLOUDY    57  53  86 N5        30.29R
DMNS CITY PARK   N/A     58  53  85 E3G15     30.31S
AURORA         CLOUDY    56  54  94 NE6       30.32R
FRONT RANGE AP CLOUDY    57  55  94 NE6       30.30R
ERIE MUNI ARPT CLOUDY    60  55  84 CALM      30.29S
BOULDER MUN AP CLOUDY    59  55  88 CALM      30.30S
CENTENNIAL     CLOUDY    56  52  86 N8        30.32R
BROOMFIELD     CLOUDY    57  55  94 MISG      30.32S
FORT COLLINS   PTSUNNY   63  55  77 SW12      30.26F
LONGMONT       CLOUDY    63  55  75 SW6       30.30R
$$

COZ041-046-047-076>085-087-088-021500-
...PIKES PEAK/PALMER DIVIDE AND SOUTHERN FOOTHILLS...

CITY           SKY/WX    TMP DP  RH WIND       PRES   REMARKS
COLO. SPRINGS  PTSUNNY   61  56  83 N25G32    30.30R
A. F. ACADEMY  LGT RAIN  57  57 100 N18G25    30.30R
ELLICOTT       PTSUNNY  N/A N/A N/A NE23G32   30.25R
FALCON         CLOUDY    56  53  90 NE17G28   30.33R
FORT CARSON    SUNNY     64  57  79 N35G47    30.21R
LIMON          PTSUNNY   59  52  77 NE14      30.26R
MONUMENT HILL  CLOUDY    52  50  93 MISG      30.36R
TRINIDAD       PTSUNNY   67  58  72 W3        30.15S
$$

COZ042>045-048>051-090-091-021500-
...NORTHEAST COLORADO...

CITY           SKY/WX    TMP DP  RH WIND       PRES   REMARKS
GREELEY ARPT   PTSUNNY   61  57  88 W6        30.24S
AKRON          TSTM      59  56  89 SE8       30.16F FOG
BURLINGTON     SUNNY     66  55  67 NE18      30.14S
WRAY           CLOUDY    63  57  80 N3        30.14S
STERLING       CLOUDY    61  57  88 W10         N/A
HOLYOKE        CLOUDY    63  59  88 CALM      30.09F
FORT MORGAN    CLOUDY    58  55  89 W10       30.20F
$$

COZ086-089-092>099-021500-
...SOUTHEAST COLORADO...

CITY           SKY/WX    TMP DP  RH WIND       PRES   REMARKS
PUEBLO         PTSUNNY   73  60  63 N23G32    30.15R
LA JUNTA       PTSUNNY   68  63  84 NE18G29   30.13R
LAMAR          PTSUNNY   70  61  73 NE21G29   30.08R
SPRINGFIELD      N/A     73  63  70 NE5       30.08R
$$


USA.gov is the U.S. government's official web portal to all federal, state and local government web resources and services.